FW9487 Weather Reports


time (UTC)temp
C
wind
direction
speed
KPH
gust
KPH
rain 1hr
cm
rain 24hr
cm
rain mn
cm
humidity
%
barometer
mb
20260504214004 14 332 1.6 11.3 0.00 0.00 0.00 69 1012.0
20260504213507 15 207 1.6 11.3 0.00 0.00 0.00 67 1012.0
20260504213021 15 250 1.6 9.7 0.00 0.00 0.00 68 1012.0
20260504212506 15 229 3.2 9.7 0.00 0.00 0.00 66 1011.9
20260504212008 15 213 1.6 12.9 0.00 0.00 0.00 65 1011.9
20260504211523 15 202 3.2 12.9 0.00 0.00 0.00 65 1011.9
20260504211004 15 228 1.6 6.4 0.00 0.00 0.00 64 1011.8
20260504210508 15 305 1.6 4.8 0.00 0.00 0.00 65 1011.8
20260504210023 15 216 1.6 8.0 0.00 0.00 0.00 64 1011.8
20260504205510 15 259 1.6 12.9 0.00 0.00 0.00 64 1011.9
20260504205011 15 202 1.6 12.9 0.00 0.00 0.00 65 1011.8
20260504204519 15 311 3.2 12.9 0.00 0.00 0.00 64 1011.9
20260504204006 15 279 1.6 9.7 0.00 0.00 0.00 64 1011.9
20260504203505 15 275 3.2 12.9 0.00 0.00 0.00 64 1011.8
20260504203020 15 233 4.8 14.5 0.00 0.00 0.00 64 1011.8
20260504202506 15 266 3.2 17.7 0.00 0.00 0.00 63 1011.9
20260504202007 15 248 6.4 17.7 0.00 0.00 0.00 61 1011.8
20260504201520 15 222 3.2 12.9 0.00 0.00 0.00 61 1011.8
20260504201006 16 257 6.4 14.5 0.00 0.00 0.00 61 1011.9
20260504200510 16 244 3.2 14.5 0.00 0.00 0.00 60 1011.9
20260504200026 16 228 4.8 14.5 0.00 0.00 0.00 60 1012.0
20260504195509 16 260 3.2 14.5 0.00 0.00 0.00 59 1012.1
20260504195012 16 201 1.6 11.3 0.00 0.00 0.00 60 1012.0
20260504194508 16 267 3.2 16.1 0.00 0.00 0.00 59 1012.1
20260504194004 16 360 3.2 17.7 0.00 0.00 0.00 59 1012.1
20260504193505 16 305 6.4 17.7 0.00 0.00 0.00 57 1012.2
20260504193017 16 115 1.6 12.9 0.00 0.00 0.00 59 1012.1
20260504192505 16 241 3.2 12.9 0.00 0.00 0.00 57 1012.1
20260504192007 16 175 4.8 17.7 0.00 0.00 0.00 58 1012.0
20260504191521 16 261 6.4 17.7 0.00 0.00 0.00 57 1012.1
20260504191007 16 227 3.2 16.1 0.00 0.00 0.00 57 1012.3
20260504190507 16 334 1.6 14.5 0.00 0.00 0.00 58 1012.3
20260504190027 16 251 4.8 14.5 0.00 0.00 0.00 57 1012.4
20260504185512 16 313 4.8 9.7 0.00 0.00 0.00 57 1012.3
20260504185008 16 243 1.6 16.1 0.00 0.00 0.00 58 1012.4
20260504184510 17 309 3.2 16.1 0.00 0.00 0.00 57 1012.5
20260504184007 17 210 0.0 11.3 0.00 0.00 0.00 58 1012.5
20260504183507 16 252 1.6 14.5 0.00 0.00 0.00 58 1012.6
20260504183018 17 144 1.6 14.5 0.00 0.00 0.00 58 1012.7
20260504182508 17 227 1.6 14.5 0.00 0.00 0.00 57 1012.7
20260504182009 17 234 4.8 14.5 0.00 0.00 0.00 56 1012.8
20260504181523 17 172 3.2 14.5 0.00 0.00 0.00 56 1012.8
20260504181013 17 240 3.2 12.9 0.00 0.00 0.00 57 1012.8
20260504180510 17 332 3.2 16.1 0.00 0.00 0.00 56 1012.9
20260504180027 17 205 3.2 16.1 0.00 0.00 0.00 56 1013.0
20260504175504 17 234 3.2 11.3 0.00 0.00 0.00 57 1013.0
20260504175005 17 252 1.6 6.4 0.00 0.00 0.00 57 1013.0
20260504174518 16 232 1.6 14.5 0.00 0.00 0.00 58 1013.0
20260504174009 16 10 3.2 14.5 0.00 0.00 0.00 59 1013.0
20260504173508 16 19 3.2 14.5 0.00 0.00 0.00 61 1013.0
20260504173020 16 277 1.6 12.9 0.00 0.00 0.00 61 1013.3
20260504172508 16 238 1.6 11.3 0.00 0.00 0.00 61 1013.2
20260504172011 16 248 1.6 16.1 0.00 0.00 0.00 61 1013.1
20260504171526 16 197 1.6 16.1 0.00 0.00 0.00 59 1013.3
20260504171015 16 243 1.6 14.5 0.00 0.00 0.00 59 1013.3
20260504170511 16 223 3.2 17.7 0.00 0.00 0.00 59 1013.4
20260504151013 16 215 3.2 14.5 0.00 0.00 0.00 54 1014.3
20260504150508 16 182 1.6 9.7 0.00 0.00 0.00 54 1014.3
20260504141012 15 237 1.6 9.7 0.00 0.00 0.00 54 1014.4
20260504140507 15 252 1.6 11.3 0.00 0.00 0.00 54 1014.5
20260504130507 13 261 3.2 11.3 0.00 0.00 0.00 56 1015.0
20260504110509 11 284 0.0 1.6 0.00 0.00 0.00 63 1015.2
20260504100507 10 212 0.0 0.0 0.00 0.00 0.00 62 1014.9
20260504081525 8 319 0.0 0.0 0.00 0.00 0.00 62 1014.4
20260504081012 8 248 0.0 0.0 0.00 0.00 0.00 62 1014.4
20260504080511 8 286 0.0 0.0 0.00 0.00 0.00 62 1014.3
20260504050508 5 22 0.0 0.0 0.00 0.00 0.00 75 1013.3
20260504050022 5 22 0.0 0.0 0.00 0.00 0.00 75 1013.4
20260504045508 5 22 0.0 0.0 0.00 0.00 0.00 74 1013.4
20260504045008 5 298 0.0 0.0 0.00 0.00 0.00 74 1013.4
20260504044534 5 298 0.0 0.0 0.00 0.00 0.00 74 1013.4
20260504044010 5 298 0.0 0.0 0.00 0.00 0.00 74 1013.4
20260504043507 5 298 0.0 0.0 0.00 0.00 0.00 73 1013.4
20260504043026 5 298 0.0 0.0 0.00 0.00 0.00 73 1013.4
20260504042508 5 298 0.0 0.0 0.00 0.00 0.00 73 1013.4
20260504042011 5 298 0.0 0.0 0.00 0.00 0.00 72 1013.4
20260504041515 5 298 0.0 0.0 0.00 0.00 0.00 72 1013.3
20260504041007 5 298 0.0 0.0 0.00 0.00 0.00 71 1013.3
20260504040508 5 298 0.0 0.0 0.00 0.00 0.00 71 1013.3
20260504040021 5 298 0.0 0.0 0.00 0.00 0.00 71 1013.4
20260504035508 5 298 0.0 0.0 0.00 0.00 0.00 71 1013.3
20260504035004 5 298 0.0 0.0 0.00 0.00 0.00 69 1013.2
20260504034504 5 298 0.0 0.0 0.00 0.00 0.00 69 1013.2
20260504034005 5 298 0.0 0.0 0.00 0.00 0.00 69 1013.2
20260504033504 5 298 0.0 0.0 0.00 0.00 0.00 68 1013.3
20260504033010 5 298 0.0 0.0 0.00 0.00 0.00 68 1013.2
20260504032504 5 298 0.0 0.0 0.00 0.00 0.00 67 1013.2
20260504032006 6 298 0.0 0.0 0.00 0.00 0.00 67 1013.2
20260504031518 6 298 0.0 0.0 0.00 0.00 0.00 67 1013.2
20260504031008 6 298 0.0 0.0 0.00 0.00 0.00 66 1013.2
20260504030508 6 298 0.0 0.0 0.00 0.00 0.00 66 1013.2
20260504030024 6 298 0.0 0.0 0.00 0.00 0.00 66 1013.1
20260504025507 6 298 0.0 0.0 0.00 0.00 0.00 65 1013.1
20260504025004 6 298 0.0 0.0 0.00 0.00 0.00 65 1013.2
20260504024506 6 298 0.0 0.0 0.00 0.00 0.00 65 1013.1
20260504024004 6 298 0.0 0.0 0.00 0.00 0.00 64 1013.0
20260504023505 6 298 0.0 0.0 0.00 0.00 0.00 64 1013.1
20260504023012 6 298 0.0 0.0 0.00 0.00 0.00 63 1013.0
20260504022506 6 298 0.0 0.0 0.00 0.00 0.00 62 1013.0
20260504022008 6 298 0.0 0.0 0.00 0.00 0.00 61 1013.1
20260504021520 7 298 0.0 0.0 0.00 0.00 0.00 61 1013.0
20260504021008 7 298 0.0 0.0 0.00 0.00 0.00 61 1012.9
20260504020508 7 298 0.0 0.0 0.00 0.00 0.00 59 1013.0
20260504020027 7 298 0.0 0.0 0.00 0.00 0.00 57 1012.9
20260504015504 7 298 0.0 0.0 0.00 0.00 0.00 57 1012.9
20260504015004 7 298 0.0 0.0 0.00 0.00 0.00 56 1012.9
20260504014512 8 298 0.0 0.0 0.00 0.00 0.00 56 1012.9
20260504014004 8 298 0.0 0.0 0.00 0.00 0.00 56 1013.0
20260504013504 8 298 0.0 0.0 0.00 0.00 0.00 53 1013.0
20260504013019 8 298 0.0 0.0 0.00 0.00 0.00 52 1012.9
20260504012509 8 298 0.0 0.0 0.00 0.00 0.00 50 1012.8
20260504012006 8 298 0.0 0.0 0.00 0.00 0.00 49 1012.8
20260504011519 8 298 0.0 0.0 0.00 0.00 0.00 50 1012.7
20260504011009 8 298 0.0 0.0 0.00 0.00 0.00 50 1012.6
20260504010514 9 298 0.0 0.0 0.00 0.00 0.00 49 1012.4
20260504010026 9 298 0.0 0.0 0.00 0.00 0.00 49 1012.4
20260504005504 9 298 0.0 0.0 0.00 0.00 0.00 49 1012.4
20260504005005 10 298 0.0 0.0 0.00 0.00 0.00 51 1012.3
20260504004514 10 298 0.0 0.0 0.00 0.00 0.00 53 1012.2
20260504004009 10 298 0.0 0.0 0.00 0.00 0.00 54 1012.1
20260504003509 10 298 0.0 0.0 0.00 0.00 0.00 50 1012.1
20260504003018 11 298 0.0 0.0 0.00 0.00 0.00 48 1011.9
20260504002508 11 298 0.0 0.0 0.00 0.00 0.00 47 1011.9
20260504002007 11 298 0.0 0.0 0.00 0.00 0.00 41 1011.9
20260504001525 11 298 0.0 0.0 0.00 0.00 0.00 38 1011.9
20260504001011 11 298 0.0 0.0 0.00 0.00 0.00 36 1011.8
20260504000514 11 298 0.0 0.0 0.00 0.00 0.00 35 1011.8
20260504000009 12 298 0.0 0.0 0.00 0.00 0.00 36 1011.7
20260503235507 12 298 0.0 0.0 0.00 0.00 0.00 34 1011.6
20260503235006 12 298 0.0 0.0 0.00 0.00 0.00 33 1011.7
20260503234514 12 298 0.0 0.0 0.00 0.00 0.00 35 1011.6
20260503234008 12 298 0.0 3.2 0.00 0.00 0.00 33 1011.5
20260503233508 12 301 0.0 3.2 0.00 0.00 0.00 32 1011.4
20260503233021 13 316 0.0 1.6 0.00 0.00 0.00 31 1011.3
20260503232509 13 294 0.0 6.4 0.00 0.00 0.00 31 1011.2
20260503232009 13 303 1.6 6.4 0.00 0.00 0.00 30 1011.2
20260503231524 13 335 0.0 11.3 0.00 0.00 0.00 31 1011.1
20260503231009 13 328 1.6 11.3 0.00 0.00 0.00 30 1011.1
20260503230509 13 352 1.6 8.0 0.00 0.00 0.00 30 1011.1
20260503230010 13 281 1.6 6.4 0.00 0.00 0.00 30 1011.0
20260503225506 13 325 1.6 12.9 0.00 0.00 0.00 31 1010.9
20260503225004 13 336 3.2 12.9 0.00 0.00 0.00 28 1011.0
20260503224517 13 315 3.2 8.0 0.00 0.00 0.00 30 1010.9
20260503224011 13 340 0.0 12.9 0.00 0.00 0.00 30 1010.9
20260503223511 13 326 0.0 12.9 0.00 0.00 0.00 30 1010.8
20260503223024 13 321 0.0 12.9 0.00 0.00 0.00 31 1010.9
20260503222510 13 292 4.8 11.3 0.00 0.00 0.00 30 1010.8
20260503222009 13 350 3.2 9.7 0.00 0.00 0.00 30 1010.9
20260503221527 13 314 1.6 11.3 0.00 0.00 0.00 30 1010.7
20260503221010 13 321 4.8 11.3 0.00 0.00 0.00 30 1010.8
20260503220510 13 321 1.6 9.7 0.00 0.00 0.00 30 1010.9
20260503220014 13 323 3.2 12.9 0.00 0.00 0.00 29 1010.9
20260503215506 13 304 3.2 12.9 0.00 0.00 0.00 30 1010.9
20260503215011 13 317 3.2 14.5 0.00 0.00 0.00 31 1010.9
20260503214523 13 331 6.4 17.7 0.00 0.00 0.00 29 1010.9